CZ-6A DEB, 58433

Orbit data source: Space-Track

CZ-6A DEB, 58433 is space debris in SSO originally from a launch on Fri, 11 Nov 2022 UTC launched from the Taiyaun Space Center, China (TSC). Debris objects in space refer to the collection of defunct objects orbiting the Earth. Examples of debris include non-operational satellites, rocket bodies, and fragments generated from explosions, collisions, or faulty payload assembly.

Loading next visibility...
Identifier
58433, 2022-151AJB
Orbit
SSO
Country
Flag of CNCN / PRC
Related business
Manufacturer
SAST
Mission
Spacecraft
Bus & Motor
Unknown
Mass
Unknown
Launch date (UTC)
2022-11-11 (4 years ago)
Launch vehicle
Unknown
Launch site
Taiyaun Space Center, China (TSC)
Object type
Payload
Rocket body
Debris
Shape & HBR
Unknown shape, 0.1 m
Radar Cross Section
Small (<0.1 m²)

Expand to show TLE details & history
Last TLE update: 1 week ago

TLE from 1 week ago
0 CZ-6A DEB
1 58433U 22151AJB 26228.72953414  .00043273  00000-0  14721-2 0  9995
2 58433  98.7757  29.4937 0047926 229.2739 130.4331 15.29189320177543
Epoch: 2026-08-16T17:30Z
TLE epoch observation values (Epoch: 2026-08-16T17:30:31.749Z)
Latitude
Longitude
161.73954°
Altitude
502.701 km
Speed
7.601 km/s
True Right ascension
01h 57m 58s
True Declination
0° 00' 00"
Sunlit
Object was in full shadow at epoch
Visualization orbit readout
Latitude
Unknown
Longitude
Unknown
Altitude
Unknown
Speed
Unknown
Apparent Right ascension
Unknown
Apparent Declination
Unknown
Sunlit
N/A
Visualization observer readout
Local Sidereal Time
14:52:19
Azimuth
Unknown
Elevation
Unknown
Doppler factor
Unknown
Orbital elements
Apogee altitude
508.098 km
Perigee altitude
442.407 km
Semi-major axis
6,853.389 km
Eccentricity
0.00479
Inclination
98.7757°
RAAN
29.4937°
Arg. of periapsis
229.2739°
True anomaly
130.8495°
Mean anomaly
130.4331°
Eccentric anomaly
130.64146°
Mean motion
3.82547 °/min
Orbital period
94.11 mins
BSTAR
0.0014721
Loading maneuver chart data...
Computing Atmospheric mass density...
Loading historical data...
Loading historical data...
Loading historical data...
Loading historical data...
Loading historical data...
Loading historical data...
Loading historical data...

Documentation

Showing up to 5 results
|